   astrograph + CCD.
(Q67) JBL Observatory, Bathurst  (S33.397063 E149.492330)  Australia/NSW.
(T05) ATLAS-HKO, Haleakala  (N20.707573 W156.257010)  US/Hawaii.  Observers
   L. Denneau, A. Heinze, H. Weiland, J. Tonry, H. Flewelling, A.
   Fitzsimmons, D. Young, B. Stalder. Measurers L. Denneau, A. Heinze, J.
   Tonry. 0.5-m f/2.0 Schmidt + CCD.
(T08) ATLAS-MLO, Mauna Loa  (N19.535772 W155.576400)  US/Hawaii.  Observers
   L. Denneau, A. Heinze, H. Weiland, J. Tonry, H. Flewelling, A.
   Fitzsimmons, D. Young, B. Stalder. Measurers L. Denneau, A. Heinze, J.
   Tonry. 0.5-m f/2.0 Schmidt + CCD.
(W88) Slooh.com Chile Observatory, La Dehesa  (S33.269128 W70.534300)  Chile.
   0.35-m f/11 Schmidt-Cassegrain + CCD.

Orbital elements:  br4203
   Perihelion 2020 Jun 15.145942 +/- 1.83 TT =  3:30:09 (JD 2459015.645942)
Epoch 2019 Jun 20.0 TT = JDT 2458654.5   Ju: 0.3121           AutoNEOCP
M 359.71969659 +/- 0.37             (J2000 ecliptic)
n   0.00077614 +/- 0.000718         Peri.   26.33163 +/- 0.6
a 117.266050 +/- 75.3               Node   308.01106 +/- 0.06
e   0.9614820 +/- 0.0247            Incl.  103.19492 +/- 0.18
P1269.87                   H  9.6   G  0.15   U  7.9  
q 4.51684443 +/- 0.0267    Q 230.015256 +/- 47.4
From 111 observations 2019 May 30-June 20; mean residual 0".39
Residuals in arcseconds: 
190530 T05  .26+  .34+    190605 Q62  .19-  .34+    190611 T05  .23+  .40-    
190530 T05  .54+  .34-    190605 Q62  .14+  .28+    190611 T05  .38+  .29-    
190530 T05  .42+  .13+    190605 Q62  .11-  .24+    190611 T05  .01+  .11+    
190530 T05  .49+  .27-    190605 Q62  .09+  .24+    190612 N55  .06+  .19+    
190601 G40  .34-  .31-    190605 Q62  .18-  .44+    190612 N55  .17+  .39+    
190601 G40  .08+  .07+    190605 Q62  .08-  .17+    190612 N55  .40+  .01-    
190601 I47  .16-  .29-    190605 N55  .18+  .09-    190614 N55  .16+  .32-    
190601 I47  .23-  .33-    190605 N55  .55-  .10+    190614 N55  .11+  .32+    
190601 I47  .18-  .58-    190605 L29  .06+  .38-    190614 N55  .60-  .96+    
190601 T08  .14+  .26-    190605 N55  .91-  .59+    190615 T05  .20-  .79+    
190601 T08  .02+  .50-    190605 L29  .25-  .41+    190615 T05  .09+  .02+    
190601 T08  .17+  .77-    190605 L29  .06+  .19+    190615 T05  .13+  .04+    
190601 T08  .20+  .43-    190606 N55  .17-  .13+    190615 T05  .21+  .24-    
190601 Q67  .05-  .13-    190606 N55  .22-  .42+    190615 Q62  .25-  .30+    
190601 Q67  .41+  .24+    190606 N55  .15-  .93+    190615 Q62  .28-  .24+    
190601 N55  .35+  .45+    190607 N55  .15-  .42+    190615 Q62  .08-  .19+    
190601 N55  .06-  .50+    190607 N55  .09+  .13+    190615 Q62  .12-  .13+    
190601 N55  .26+  .06+    190607 N55  .04-  .34+    190616 E94  .74+  1.2-    
190602 K91  .58-  .19+    190608 N55  .91-  .58+    190616 E94  .37+  .65-    
190602 K91  .52-  .25+    190608 N55  .76-  .60+    190616 E94  .27+  .19-    
190602 K91  .82-  .21+    190609 W88  .19-  .06-    190616 E94  .02+  .53-    
190602 K91  .76-  .27+    190609 W88  .09+  .07-    190616 E94  .13-  .26-    
190602 N55  .17-  .10+    190609 T08  .17-  .63-    190616 E94  .01-  .08-    
190602 N55  .10+  .14-    190609 T08  .39+  .72-    190617 E94  .24-  .38+    
190602 N55  .49+  .43+    190609 T08  .05+  .55-    190617 E94  .53-  .54+    
190603 T05  .11+  .31-    190609 T08  .07+  .68-    190617 E94  .42+  .41-    
190603 T05  .06-  .44-    190609 T08  .43+  .73-    190617 E94  .02-  .05+    
190603 T05  .19+  .19-    190609 T08  .38+  .72-    190617 E94  .15-  .12-    
190603 T05  .10+  .05-    190609 T08  .25+  .90-    190617 E94  .31+  .16-    
190604 I47  .07+  .10-    190609 T08  .32+  .98-    190617 E94  2.0+  .03-    
190604 I47  .10+  .87+    190609 N55  .06+  .30+    190617 E94  .17-  .19-    
190604 I47  .31+  .40-    190609 N55  .13+  .08-    190617 E94  .04+  .84-    
190604 Q62  .27+  .14+    190609 N55  .19-  .49+    190617 E94  .09-  .53-    
190604 Q62  .05+  .11+    190610 N55  .01+  .27+    190617 E94  .12+  .59-    
190604 Q62  .02-  .26+    190610 N55  .01+  .02-    190617 E94  .42+  .62-    
190604 Q62  .08-  .06+    190610 N55  .26+  .28+    190620 822  .22-  .12-    
190604 Q62  .05-  .04+    190611 T05  .00   .38+    190620 822  .41-  .03-    

Ephemerides (geocentric):
Date (UTC) HH   RA              Dec         delta   r     elong  mag " sig PA
---- -- -- --  -------------   -----------  ------ ------ -----  --- ---- ---
2019 06 25 12  22 08 07.570   -34 58 24.22  4.6111 5.3038 128.5 17.1 .587 106
2019 06 25 13  22 08 05.425   -34 58 26.29  4.6104 5.3036 128.5 17.1 .592 105
2019 06 25 14  22 08 03.278   -34 58 28.36  4.6097 5.3035 128.6 17.1 .598 105
2019 06 25 15  22 08 01.128   -34 58 30.42  4.6090 5.3033 128.6 17.1 .603 105
2019 06 25 16  22 07 58.977   -34 58 32.48  4.6083 5.3031 128.7 17.1 .609 105
2019 06 25 17  22 07 56.824   -34 58 34.55  4.6076 5.3030 128.7 17.1 .615 105
2019 06 25 18  22 07 54.668   -34 58 36.61  4.6070 5.3028 128.7 17.1 .620 105
2019 06 25 19  22 07 52.511   -34 58 38.67  4.6063 5.3026 128.8 17.1 .626 105
2019 06 25 20  22 07 50.351   -34 58 40.73  4.6056 5.3025 128.8 17.1 .632 105
2019 06 25 21  22 07 48.190   -34 58 42.79  4.6049 5.3023 128.9 17.1 .638 105
2019 06 25 22  22 07 46.026   -34 58 44.85  4.6042 5.3021 128.9 17.1 .644 105
2019 06 25 23  22 07 43.860   -34 58 46.91  4.6035 5.3020 129.0 17.1 .650 105
2019 06 26 00  22 07 41.692   -34 58 48.97  4.6029 5.3018 129.0 17.1 .656 104
2019 06 26 01  22 07 39.522   -34 58 51.02  4.6022 5.3016 129.0 17.1 .662 104
2019 06 26 02  22 07 37.350   -34 58 53.08  4.6015 5.3015 129.1 17.1 .668 104
2019 06 26 03  22 07 35.176   -34 58 55.13  4.6008 5.3013 129.1 17.1 .674 104
2019 06 26 04  22 07 33.000   -34 58 57.19  4.6001 5.3011 129.2 17.1 .680 104
2019 06 26 05  22 07 30.822   -34 58 59.24  4.5995 5.3010 129.2 17.1 .686 104
2019 06 26 06  22 07 28.641   -34 59 01.30  4.5988 5.3008 129.3 17.1 .692 104
2019 06 26 07  22 07 26.459   -34 59 03.35  4.5981 5.3006 129.3 17.1 .698 104
2019 06 26 08  22 07 24.275   -34 59 05.40  4.5974 5.3005 129.3 17.1 .704 104
2019 06 26 09  22 07 22.088   -34 59 07.45  4.5967 5.3003 129.4 17.1 .711 104
2019 06 26 10  22 07 19.899   -34 59 09.50  4.5961 5.3001 129.4 17.1 .717 104
2019 06 26 11  22 07 17.709   -34 59 11.55  4.5954 5.3000 129.5 17.1 .723 103
2019 06 26 12  22 07 15.516   -34 59 13.59  4.5947 5.2998 129.5 17.1 .730 103
2019 06 26 13  22 07 13.321   -34 59 15.64  4.5940 5.2996 129.6 17.1 .736 103
2019 06 26 14  22 07 11.124   -34 59 17.69  4.5934 5.2995 129.6 17.1 .742 103
2019 06 26 15  22 07 08.925   -34 59 19.73  4.5927 5.2993 129.6 17.1 .749 103
2019 06 26 16  22 07 06.724   -34 59 21.78  4.5920 5.2991 129.7 17.1 .755 103
2019 06 26 17  22 07 04.521   -34 59 23.82  4.5913 5.2990 129.7 17.1 .762 103
2019 06 26 18  22 07 02.316   -34 59 25.86  4.5907 5.2988 129.8 17.1 .769 103
2019 06 26 19  22 07 00.108   -34 59 27.90  4.5900 5.2986 129.8 17.1 .775 103
2019 06 26 20  22 06 57.899   -34 59 29.94  4.5893 5.2985 129.8 17.1 .782 103
2019 06 26 21  22 06 55.688   -34 59 31.98  4.5886 5.2983 129.9 17.1 .789 103
2019 06 26 22  22 06 53.474   -34 59 34.02  4.5880 5.2981 129.9 17.1 .795 103
2019 06 26 23  22 06 51.259   -34 59 36.05  4.5873 5.2980 130.0 17.1 .802 103
2019 06 27 00  22 06 49.041   -34 59 38.09  4.5866 5.2978 130.0 17.1 .809 102
2019 06 27 01  22 06 46.821   -34 59 40.12  4.5859 5.2977 130.1 17.1 .816 102
2019 06 27 02  22 06 44.600   -34 59 42.15  4.5853 5.2975 130.1 17.1 .823 102
2019 06 27 03  22 06 42.376   -34 59 44.19  4.5846 5.2973 130.1 17.1 .830 102
2019 06 27 04  22 06 40.150   -34 59 46.22  4.5839 5.2972 130.2 17.1 .837 102
2019 06 27 05  22 06 37.922   -34 59 48.25  4.5833 5.2970 130.2 17.1 .844 102
2019 06 27 06  22 06 35.692   -34 59 50.27  4.5826 5.2968 130.3 17.1 .851 102
2019 06 27 07  22 06 33.460   -34 59 52.30  4.5819 5.2967 130.3 17.1 .858 102
2019 06 27 08  22 06 31.225   -34 59 54.33  4.5813 5.2965 130.4 17.1 .865 102
2019 06 27 09  22 06 28.989   -34 59 56.35  4.5806 5.2963 130.4 17.1 .872 102
2019 06 27 10  22 06 26.751   -34 59 58.37  4.5799 5.2962 130.4 17.1 .879 102
2019 06 27 11  22 06 24.510   -35 00 00.40  4.5792 5.2960 130.5 17.1 .886 102